Regional Weather Roundup
Issued by NWS

Home | Current Version | Previous Version | Graphics & Text | Print | Product List | Glossary On
Versions: 1 2 3 4 5 6 7 8 9 10 11 12 13 14 15 16 17 18 19 20 21 22 23 24 25 26 27 28 29 30 31 32 33 34 35 36 37 38 39 40 41 42 43 44 45 46 47 48 49 50
000
ASUS43 KIND 222159
RWRIN

WEATHER ROUNDUP FOR INDIANA
NATIONAL WEATHER SERVICE INDIANAPOLIS IN
600 PM EDT THU JUN 22 2017

NOTE: "FAIR" INDICATES FEW OR NO CLOUDS BELOW 12,000 FEET WITH NO
SIGNIFICANT WEATHER AND/OR OBSTRUCTIONS TO VISIBILITY.

* - STATION DOES NOT REPORT WEATHER SUCH AS PRECIPITATION OR FOG.

+ - STATION NOT QUALITY CONTROLLED BY THE NATIONAL WEATHER SERVICE.
    USE DATA WITH CAUTION...ESPECIALLY DEWPOINT AND RELATIVE
    HUMIDITY OBSERVATIONS.

INZ001>003-010>013-019-020-222300-
NORTHWEST INDIANA

CITY           SKY/WX    TMP DP  RH WIND       PRES   REMARKS
GARY /AIRPORT/ PTSUNNY   86  66  51 S12G32    29.77F
KNOX *+        CLOUDY    79  61  53 SW17G25   29.80F
MICHIGAN CITY+ CLOUDY    82  68  61 S17G26    29.78F
MONTICELLO +   CLOUDY    82  71  70 S12G17    29.82F
RENSSELAER +   CLOUDY    82  68  61 S20G25    29.81F

$$

LMZ046-743>745-222300-
SOUTHERN LAKE MICHIGAN

STATION/POSITION TIME  TEMP    WIND        PRES    WAVE
                       AIR SEA DIR/SP/G            HT
                 (UTC) (F)     (DEG/KT/KT) (MB)    (FT)
BURNS HARBOR     2140   83     180/ 14/ 22 1008.5F
MICHIGAN CITY    2130   83     190/ 19/ 23   N/A
5NW MICH CITY    2150   78 68  210/ 14/ 17   N/A     2

$$

INZ004-005-014>016-021>024-222300-
NORTH CENTRAL INDIANA

CITY           SKY/WX    TMP DP  RH WIND       PRES   REMARKS
GOSHEN         PTSUNNY   85  69  58 S16G22    29.80F
SOUTH BEND     CLOUDY    83  71  67 S15G22    29.79F

$$

INZ006>009-017-018-025>027-222300-
NORTHEAST INDIANA

CITY           SKY/WX    TMP DP  RH WIND       PRES   REMARKS
FORT WAYNE     MOSUNNY   85  67  54 SW18G26   29.84F
KENDALLVILLE + CLOUDY    80  72  75 SW13      29.84F

$$

INZ028-029-035-036-043>045-051>053-222300-
WEST CENTRAL INDIANA

CITY           SKY/WX    TMP DP  RH WIND       PRES   REMARKS
CRAWFORDSVL +  PTSUNNY   78  69  75 S16G23    29.86F
GREENCASTLE +  CLOUDY    75  68  78 S12G20    29.88S
LAFAYETTE      PTSUNNY   81  71  71 S14G23    29.82F
TERRE HAUTE    CLOUDY    74  70  87 S10       29.86S FOG

$$

INZ030>032-037>040-046>048-054>057-064-065-222300-
CENTRAL INDIANA

CITY           SKY/WX    TMP DP  RH WIND       PRES   REMARKS
COLUMBUS       CLOUDY    75  68  78 S13G21    29.91F
GREENWOOD *+   CLOUDY    76  68  77 SW12G21   29.90F
INDIANAPOLIS   CLOUDY    78  68  71 S20       29.88S
-EAGLE CREEK   CLOUDY    78  67  68 S16G24    29.87F
KOKOMO +       CLOUDY    83  69  62 SW25      29.86F
MT COMFORT *+  CLOUDY    79  68  69 S17G24    29.90S
SHELBYVILLE    CLOUDY    78  67  68 S20G26    29.89F

$$

INZ033-034-041-042-049-050-058-059-222300-
EAST CENTRAL INDIANA

CITY           SKY/WX    TMP DP  RH WIND       PRES   REMARKS
MUNCIE         CLOUDY    82  69  64 SW13G22   29.88F
RICHMOND +     CLOUDY    77  68  73 S14       29.94S

$$

INZ060-061-067>069-081>083-085>088-222300-
SOUTHWEST INDIANA

CITY           SKY/WX    TMP DP  RH WIND       PRES   REMARKS
EVANSVILLE     CLOUDY    74  70  87 SE10      29.85F
HUNTINGBURG *+ CLOUDY    72  71  97 SE13      29.87F

$$

INZ062-063-066-070>080-084-089>092-222300-
SOUTH CENTRAL AND SOUTHEAST INDIANA

CITY           SKY/WX    TMP DP  RH WIND       PRES   REMARKS
BLOOMINGTON    DRIZZLE   74  69  85 S8G18     29.88F
SEYMOUR +      DRIZZLE   77  70  78 N10G16    29.90

$$




USA.gov is the U.S. government's official web portal to all federal, state and local government web resources and services.